Location: Vinland
(47.7731°N, 122.6974°W)
Time: 03:18:33
(UTC+00:00)

S-56A Canister/Altair - Pass Details

Date: 04 April 2023
Orbit: 639 x 2492 km, 38.9° (Epoch: 31 May)

Event Time Altitude Azimuth Distance (km) Brightness Sun altitude
Rises 05:02:42 0° 275° (W) 5,051 12.6 -22.1°
Reaches altitude 10° 05:05:53 10° 269° (W) 4,287 12.0 -22.6°
Maximum altitude 05:17:03 43° 203° (SSW) 2,977 10.3 -24.0°
Enters shadow 05:23:34 30° 158° (SSE) 3,714 10.4 -24.8°
